Miscellaneous Local Product
Issued by NWS North Platte, NE

Home | Current Version | Previous Version | Text Only | Print | Product List | Glossary On
Versions: 1 2 3 4 5 6 7 8 9 10 11 12 13 14 15 16 17 18 19 20 21 22 23 24 25 26 27 28 29 30 31 32 33 34 35 36 37 38 39 40 41 42 43 44 45 46 47 48 49 50
767
AXUS43 KLBF 211810
MISLBF


WESTERN AND NORTH CENTRAL NEBRASKA HOURLY WEATHER ROUNDUP
NATIONAL WEATHER SERVICE NORTH PLATTE NE
100 PM CDT THU MAY 21 2015

***STATIONS NOT REPORTING VARIABLES SUCH AS SKY/WEATHER OR
PRESSURE ARE PROVIDED BY THE NEBRASKA DEPARTMENT OF
ROADS...RAWS...AND APRS NETWORKS...AND ARE NOT UNDER
NATIONAL WEATHER SERVICE QUALITY CONTROL***

...OBSERVATIONS IN AND NEAR THE EASTERN PANHANDLE OF NEBRASKA...

CITY           SKY/WX    TMP DP  RH WIND       PRES   REMARKS
PINE RIDGE     MOSUNNY   57  36  45 VRB7      30.23F
CHADRON        CLOUDY    56  40  55 CALM      30.22F
ALLIANCE       CLOUDY    53  40  61 S12       30.24S
SIDNEY         CLOUDY    53  41  63 SE9       30.25S
WHITECLAY        N/A     55  36  47 SE7         N/A
BIG SPRINGS      N/A     52  44  74 S8          N/A
$$

...OBSERVATIONS IN NORTH CENTRAL NEBRASKA...

CITY           SKY/WX    TMP DP  RH WIND       PRES   REMARKS
VALENTINE      SUNNY     59  29  31 S6        30.26F
THEDFORD       SUNNY     59  33  37 SE3       30.27F
AINSWORTH      SUNNY     60  35  39 CALM      30.26F
O`NEILL        SUNNY     63  37  37 W5        30.26F
ORD            SUNNY     61  38  42 CALM      30.26F
BROKEN BOW     SUNNY     59  36  42 SW5       30.28S
BROWNLEE         N/A     64  25  23 CALM        N/A
BREWSTER         N/A     62  33  33 CALM        N/A
ROSE             N/A     62  37  38 CALM        N/A
NEWPORT          N/A     62  37  40 W3          N/A
COMSTOCK         N/A     64  32  29 CALM        N/A
$$

...OBSERVATIONS IN SOUTHWEST NEBRASKA AND FAR NORTHEAST COLORADO...

CITY           SKY/WX    TMP DP  RH WIND       PRES   REMARKS
WRAY           CLOUDY    57  42  55 SE12G17   30.26F
IMPERIAL       CLOUDY    52  40  63 SE9       30.28F
OGALLALA       CLOUDY    53  41  62 SW7       30.27F
NORTH PLATTE   SUNNY     56  38  50 CALM      30.28F
MCCOOK         SUNNY     57  37  47 CALM      30.28F
LEXINGTON      SUNNY     57  39  51 SW5       30.29F
PAXTON           N/A     55  44  66 SE3         N/A
GOTHENBURG       N/A     59  36  41 CALM        N/A
CALLAWAY         N/A     58  45  62 E5          N/A
$$

...NORTH PLATTE AREA...

CITY           SKY/WX    TMP DP  RH WIND       PRES   REMARKS
AIRPORT        SUNNY     56  38  50 CALM      30.28F
$$

...SOME WEATHER OBSERVATIONS FROM AROUND THE REGION...

CITY           SKY/WX    TMP DP  RH WIND       PRES   REMARKS
DENVER         CLOUDY    52  41  66 NW3       30.18F
LARAMIE        SUNNY     57  35  43 SE3       30.14F
CHEYENNE       CLOUDY    44  38  79 S10       30.20S
SCOTTSBLUFF    CLOUDY    53  39  59 SE10      30.22F
RAPID CITY     SUNNY     58  32  37 SE13      30.23F
PIERRE         SUNNY     65  36  34 SW7       30.22F
WINNER           N/A    N/A N/A N/A MISG      30.25F
SIOUX FALLS    MOSUNNY   71  38  29 NW17G25   30.16F
OMAHA          MOSUNNY   67  42  40 NW12      30.22F
GRAND ISLAND   SUNNY     61  34  36 VRB5      30.29F
KANSAS CITY    MOSUNNY   62  45  53 VRB7      30.26F
WICHITA        MOSUNNY   60  42  51 E10G21    30.29F
HAYS           SUNNY     57  37  47 E7        30.30F
LIBERAL        CLOUDY    54  39  58 CALM      30.31F
GOODLAND       CLOUDY    54  40  59 SE7       30.27F
$$



USA.gov is the U.S. government's official web portal to all federal, state and local government web resources and services.